This demonstration page uses our WeatherBlox Daily Observations layout. Learn more.

Left ArrowRight Arrow

Hourly Observations for October 16, 2015

Temp ( °F °C ) Dew Point ( °F °C ) Humidity (%) Winds ( mph kmh ) Pressure ( in mb ) Visibility ( mi km ) Precip ( " mm )
12:51 am 00:51 Clear 74 23.3 47 8.3 38 38 E 9 15 29.85 1011 10 16 0.00 0.00
1:51 am 01:51 Clear 70 21.1 47 8.3 44 44 SE 6 9 29.87 1012 10 16 0.00 0.00
2:51 am 02:51 Clear 67 19.4 47 8.3 49 49 SSW 7 11 29.87 1012 10 16 0.00 0.00
3:51 am 03:51 Clear 68 20 47 8.3 47 47 E 5 7 29.88 1012 10 16 0.00 0.00
4:51 am 04:51 Clear 67 19.4 47 8.3 49 49 ESE 8 13 29.91 1013 10 16 0.00 0.00
5:51 am 05:51 Clear 67 19.4 47 8.3 49 49 E 9 15 29.94 1014 10 16 0.00 0.00
6:51 am 06:51 Sunny 63 17.2 48 8.9 58 58 SSE 8 13 29.97 1015 10 16 0.00 0.00
7:51 am 07:51 Mostly Sunny 68 20 47 8.3 47 47 ESE 9 15 29.99 1016 10 16 0.00 0.00
8:51 am 08:51 Sunny 76 24.4 48 8.9 37 37 ESE 9 15 30.00 1016 10 16 0.00 0.00
9:51 am 09:51 Sunny 79 26.1 48 8.9 34 34 E 9 15 29.99 1016 10 16 0.00 0.00
10:51 am 10:51 Partly Cloudy 79 26.1 49 9.4 35 35 ESE 21 33 30.00 1016 10 16 0.00 0.00
11:51 am 11:51 Sunny 80 26.7 51 10.6 37 37 ESE 22 35 29.99 1016 10 16 0.00 0.00
12:51 pm 12:51 Cloudy 76 24.4 52 11.1 43 43 SE 15 24 29.98 1015 10 16 0.00 0.00
1:51 pm 13:51 Mostly Sunny 78 25.6 52 11.1 40 40 SE 16 26 29.97 1015 10 16 0.00 0.00
2:51 pm 14:51 Mostly Sunny 78 25.6 52 11.1 40 40 ESE 16 26 29.96 1014 10 16 0.00 0.00
3:51 pm 15:51 Sunny 76 24.4 52 11.1 43 43 E 12 19 29.97 1015 10 16 0.00 0.00
4:51 pm 16:51 Sunny 75 23.9 52 11.1 45 45 E 14 22 29.97 1015 10 16 0.00 0.00
5:51 pm 17:51 Partly Cloudy 73 22.8 52 11.1 48 48 E 12 19 29.96 1015 10 16 0.00 0.00
6:51 pm 18:51 Clear 72 22.2 52 11.1 50 50 E 10 17 29.98 1015 10 16 0.00 0.00
7:51 pm 19:51 Partly Cloudy 71 21.7 52 11.1 51 51 E 9 15 29.99 1016 10 16 0.00 0.00
8:51 pm 20:51 Clear 71 21.7 51 10.6 49 49 ESE 9 15 29.99 1016 10 16 0.00 0.00
9:51 pm 21:51 Cloudy 72 22.2 49 9.4 44 44 ESE 14 22 30.01 1016 10 16 0.00 0.00
10:51 pm 22:51 Cloudy 69 20.6 52 11.1 55 55 SSE 21 33 30.06 1018 10 16 0.00 0.00
11:51 pm 23:51 Cloudy with Light Rain 63 17.2 59 15 87 87 S 6 9 30.08 1019 10 16 0.01 0.25

Powered by AerisWeather